This is the latest recevied weather packets stored in our database for station/object N5YHM-13. If no packets are shown the sender has not sent any weather packets the latest 10 day(s).
| Time | Temp. | Humidity | Pressure | Rain* | Wind** | Luminosity | Snow |
|---|---|---|---|---|---|---|---|
| 1778078580 | 25° C | 96% | 1015.4 hPa | 0 mm | - | 12 W/m² | - |
| 1778078278 | 24.44° C | 96% | 1015.1 hPa | 0 mm | - | 9 W/m² | - |
| 1778077975 | 24.44° C | 96% | 1015.4 hPa | 0 mm | - | 6 W/m² | - |
| 1778077673 | 24.44° C | 96% | 1015.4 hPa | 0 mm | - | 7 W/m² | - |
| 1778077371 | 24.44° C | 96% | 1015.1 hPa | 0 mm | - | 7 W/m² | - |
| 1778077069 | 24.44° C | 96% | 1015.1 hPa | 0 mm | - | 7 W/m² | - |
| 1778076767 | 24.44° C | 96% | 1015.1 hPa | 0 mm | - | 5 W/m² | - |
| 1778076464 | 24.44° C | 96% | 1015.2 hPa | 0 mm | - | 4 W/m² | - |
| 1778076161 | 24.44° C | 96% | 1015 hPa | 0 mm | - | 3 W/m² | - |
| 1778075858 | 24.44° C | 96% | 1014.8 hPa | 0 mm | - | 5 W/m² | - |
| 1778075554 | 24.44° C | 96% | 1014.9 hPa | 0 mm | - | 5 W/m² | - |
| 1778075251 | 24.44° C | 96% | 1014.7 hPa | 0 mm | - | 3 W/m² | - |
| 1778074947 | 24.44° C | 96% | 1014.7 hPa | 0 mm | - | 6 W/m² | - |
| 1778074645 | 24.44° C | 96% | 1014.6 hPa | 0 mm | - | 3 W/m² | - |
| 1778074341 | 24.44° C | 96% | 1014.6 hPa | 0 mm | - | 4 W/m² | - |
| 1778074038 | 24.44° C | 96% | 1014.9 hPa | 0 mm | - | 5 W/m² | - |
| 1778073735 | 24.44° C | 96% | 1014.5 hPa | 0 mm | - | 4 W/m² | - |
| 1778073433 | 24.44° C | 96% | 1014.6 hPa | 0 mm | - | 5 W/m² | - |
| 1778073129 | 23.89° C | 97% | 1014.6 hPa | 0 mm | - | 5 W/m² | - |
| 1778072826 | 23.89° C | 97% | 1014.4 hPa | 0 mm | - | 4 W/m² | - |
| 1778072523 | 23.89° C | 97% | 1014.7 hPa | 0 mm | - | 5 W/m² | - |
| 1778072221 | 23.89° C | 97% | 1014.7 hPa | 0 mm | - | 5 W/m² | - |
| 1778071919 | 23.89° C | 97% | 1014.7 hPa | 0 mm | - | 3 W/m² | - |
| 1778071616 | 23.89° C | 97% | 1014.6 hPa | 0 mm | - | 3 W/m² | - |
| 1778071314 | 23.89° C | 97% | 1014.5 hPa | 0 mm | - | 4 W/m² | - |
* Rain latest hour (hover to see other rain measurements)
** Current wind speed in m/s (hover to see current wind gust speed)